| time (UTC) | temp C | wind direction | speed KPH | gust KPH | rain 1hr cm | rain 24hr cm | rain mn cm | humidity % | barometer mb |
| 20260507210018 | 16 | 4 | 3.2 | 30.6 | 0.00 | 0.56 | 0.25 | 31 | 1023.4 |
| 20260507204608 | 16 | 4 | 4.8 | 16.1 | 0.00 | 0.61 | 0.25 | 32 | 1023.9 |
| 20260507203023 | 16 | 4 | 1.6 | 29.0 | 0.00 | 0.61 | 0.25 | 33 | 1024.3 |
| 20260507201608 | 16 | 4 | 11.3 | 25.7 | 0.00 | 0.61 | 0.25 | 33 | 1024.5 |
| 20260507200032 | 15 | 4 | 8.0 | 19.3 | 0.00 | 0.61 | 0.25 | 36 | 1025.1 |
| 20260507194623 | 15 | 4 | 3.2 | 16.1 | 0.00 | 0.64 | 0.25 | 36 | 1025.2 |
| 20260507193032 | 15 | 4 | 3.2 | 12.9 | 0.00 | 0.64 | 0.25 | 32 | 1025.7 |
| 20260507191625 | 14 | 4 | 4.8 | 16.1 | 0.00 | 0.64 | 0.25 | 33 | 1026.3 |
| 20260507190048 | 13 | 4 | 4.8 | 9.7 | 0.00 | 0.64 | 0.25 | 32 | 1026.8 |
| 20260507184506 | 13 | 4 | 3.2 | 14.5 | 0.00 | 0.64 | 0.25 | 31 | 1027.2 |
| 20260507183056 | 13 | 4 | 3.2 | 12.9 | 0.00 | 0.64 | 0.25 | 31 | 1027.5 |
| 20260507181519 | 12 | 4 | 1.6 | 14.5 | 0.00 | 0.64 | 0.25 | 27 | 1027.8 |
| 20260507180118 | 12 | 4 | 1.6 | 8.0 | 0.00 | 0.64 | 0.25 | 25 | 1028.1 |
| 20260507174554 | 12 | 4 | 1.6 | 6.4 | 0.00 | 0.69 | 0.25 | 25 | 1028.5 |
| 20260507173123 | 12 | 4 | 1.6 | 4.8 | 0.00 | 0.69 | 0.25 | 26 | 1028.6 |
| 20260507171559 | 12 | 4 | 3.2 | 8.0 | 0.00 | 0.69 | 0.25 | 24 | 1028.8 |
| 20260507170123 | 11 | 4 | 1.6 | 8.0 | 0.00 | 0.69 | 0.25 | 29 | 1029.0 |
| 20260507164551 | 11 | 4 | 1.6 | 6.4 | 0.00 | 0.71 | 0.25 | 26 | 1029.2 |
| 20260507163006 | 12 | 4 | 1.6 | 4.8 | 0.00 | 0.71 | 0.25 | 29 | 1029.2 |
| 20260507161602 | 11 | 4 | 0.0 | 6.4 | 0.00 | 0.71 | 0.25 | 34 | 1029.3 |
| 20260507160016 | 11 | 4 | 0.0 | 8.0 | 0.03 | 0.71 | 0.25 | 34 | 1029.4 |
| 20260507154606 | 11 | 8 | 1.6 | 9.7 | 0.05 | 0.71 | 0.25 | 41 | 1029.6 |
| 20260507153026 | 10 | 4 | 0.0 | 8.0 | 0.08 | 0.71 | 0.25 | 45 | 1029.7 |
| 20260507151601 | 10 | 4 | 3.2 | 6.4 | 0.10 | 0.71 | 0.25 | 47 | 1030.0 |
| 20260507150054 | 10 | 4 | 0.0 | 6.4 | 0.13 | 0.69 | 0.23 | 53 | 1030.2 |
| 20260507144551 | 10 | 4 | 0.0 | 9.7 | 0.13 | 0.66 | 0.20 | 53 | 1030.3 |
| 20260507143046 | 9 | 4 | 0.0 | 1.6 | 0.13 | 0.64 | 0.18 | 56 | 1030.4 |
| 20260507141541 | 9 | 4 | 0.0 | 1.6 | 0.10 | 0.58 | 0.13 | 62 | 1030.4 |
| 20260507140045 | 7 | 4 | 0.0 | 0.0 | 0.10 | 0.56 | 0.10 | 65 | 1030.6 |
| 20260507134533 | 6 | 4 | 0.0 | 9.7 | 0.08 | 0.53 | 0.08 | 64 | 1030.7 |
| 20260507133032 | 6 | 4 | 6.4 | 14.5 | 0.05 | 0.51 | 0.05 | 60 | 1030.9 |
| 20260507131544 | 5 | 4 | 4.8 | 16.1 | 0.03 | 0.48 | 0.03 | 61 | 1031.0 |
| 20260507130020 | 3 | 4 | 6.4 | 14.5 | 0.00 | 0.46 | 0.00 | 64 | 1031.0 |
| 20260507124520 | 2 | 4 | 4.8 | 12.9 | 0.00 | 0.46 | 0.00 | 64 | 1030.9 |
| 20260507123013 | 1 | 4 | 6.4 | 14.5 | 0.00 | 0.46 | 0.00 | 65 | 1030.7 |
| 20260507121509 | 0 | 4 | 4.8 | 9.7 | 0.00 | 0.46 | 0.00 | 71 | 1030.6 |
| 20260507120008 | 0 | 4 | 4.8 | 8.0 | 0.00 | 0.46 | 0.00 | 72 | 1030.7 |
| 20260507114505 | 0 | 4 | 4.8 | 9.7 | 0.00 | 0.46 | 0.00 | 71 | 1030.6 |
| 20260507113131 | 0 | 4 | 4.8 | 12.9 | 0.00 | 0.46 | 0.00 | 72 | 1030.4 |
| 20260507111507 | 0 | 4 | 6.4 | 14.5 | 0.00 | 0.46 | 0.00 | 73 | 1030.7 |
| 20260507110058 | 0 | 4 | 9.7 | 14.5 | 0.00 | 0.46 | 0.00 | 73 | 1030.8 |
| 20260507104519 | -1 | 4 | 3.2 | 8.0 | 0.00 | 0.46 | 0.00 | 75 | 1030.9 |
| 20260507103105 | 0 | 4 | 6.4 | 14.5 | 0.00 | 0.46 | 0.00 | 74 | 1030.8 |
| 20260507101532 | 0 | 4 | 6.4 | 14.5 | 0.00 | 0.46 | 0.00 | 76 | 1031.1 |
| 20260507100124 | -1 | 4 | 8.0 | 14.5 | 0.00 | 0.46 | 0.00 | 77 | 1031.2 |
| 20260507094555 | -1 | 4 | 4.8 | 12.9 | 0.00 | 0.46 | 0.00 | 78 | 1031.2 |
| 20260507093005 | -1 | 4 | 4.8 | 12.9 | 0.00 | 0.46 | 0.00 | 78 | 1030.9 |
| 20260507091555 | -1 | 9 | 4.8 | 12.9 | 0.00 | 0.46 | 0.00 | 79 | 1030.9 |
| 20260507090007 | 0 | 4 | 3.2 | 14.5 | 0.00 | 0.46 | 0.00 | 77 | 1030.7 |
| 20260507084603 | 0 | 4 | 4.8 | 14.5 | 0.00 | 0.46 | 0.00 | 77 | 1030.5 |
| 20260507083018 | 0 | 4 | 6.4 | 14.5 | 0.00 | 0.46 | 0.00 | 77 | 1030.6 |
| 20260507081557 | 0 | 8 | 9.7 | 14.5 | 0.00 | 0.46 | 0.00 | 77 | 1030.7 |
| 20260507080019 | 0 | 4 | 9.7 | 14.5 | 0.00 | 0.46 | 0.00 | 76 | 1030.8 |
| 20260507074615 | 0 | 4 | 8.0 | 14.5 | 0.00 | 0.46 | 0.00 | 76 | 1031.0 |
| 20260507073041 | 0 | 4 | 3.2 | 17.7 | 0.00 | 0.46 | 0.00 | 80 | 1031.2 |
| 20260507071632 | 0 | 4 | 4.8 | 14.5 | 0.00 | 0.46 | 0.00 | 82 | 1031.1 |
| 20260507070049 | 0 | 4 | 1.6 | 6.4 | 0.00 | 0.46 | 0.00 | 81 | 1031.2 |
| 20260507064506 | 0 | 4 | 3.2 | 12.9 | 0.00 | 0.46 | 0.00 | 81 | 1031.0 |
| 20260507063055 | 0 | 4 | 8.0 | 14.5 | 0.00 | 0.46 | 0.00 | 82 | 1031.0 |
| 20260507061506 | 0 | 4 | 6.4 | 22.5 | 0.00 | 0.46 | 0.00 | 84 | 1030.8 |
| 20260507060056 | 0 | 8 | 4.8 | 19.3 | 0.00 | 0.46 | 0.00 | 85 | 1030.8 |
| 20260507054534 | 0 | 4 | 4.8 | 12.9 | 0.00 | 0.46 | 0.46 | 86 | 1030.6 |
| 20260507053115 | 0 | 4 | 3.2 | 14.5 | 0.00 | 0.46 | 0.46 | 87 | 1030.6 |
| 20260507051535 | 0 | 4 | 3.2 | 12.9 | 0.00 | 0.46 | 0.46 | 89 | 1030.5 |
| 20260507050129 | 0 | 4 | 3.2 | 14.5 | 0.00 | 0.46 | 0.46 | 89 | 1030.6 |
| 20260507044554 | 0 | 4 | 4.8 | 12.9 | 0.00 | 0.46 | 0.46 | 90 | 1030.6 |
| 20260507043001 | -1 | 4 | 6.4 | 12.9 | 0.00 | 0.46 | 0.46 | 91 | 1030.6 |
| 20260507041601 | -1 | 4 | 8.0 | 14.5 | 0.00 | 0.46 | 0.46 | 91 | 1030.5 |
| 20260507040025 | -1 | 8 | 6.4 | 9.7 | 0.00 | 0.46 | 0.46 | 92 | 1030.6 |
| 20260507034621 | -1 | 4 | 1.6 | 9.7 | 0.00 | 0.46 | 0.46 | 92 | 1030.7 |
| 20260507033044 | -1 | 4 | 3.2 | 6.4 | 0.00 | 0.46 | 0.46 | 92 | 1030.6 |
| 20260507031625 | -1 | 4 | 0.0 | 4.8 | 0.00 | 0.46 | 0.46 | 92 | 1030.5 |
| 20260507030035 | -1 | 4 | 4.8 | 8.0 | 0.00 | 0.46 | 0.46 | 92 | 1030.3 |
| 20260507024613 | -2 | 4 | 1.6 | 6.4 | 0.00 | 0.48 | 0.46 | 92 | 1030.2 |
| 20260507023034 | -2 | 4 | 6.4 | 8.0 | 0.00 | 0.48 | 0.46 | 93 | 1030.0 |
| 20260507021543 | -2 | 8 | 3.2 | 6.4 | 0.00 | 0.48 | 0.46 | 92 | 1030.1 |
| 20260507020120 | -2 | 4 | 1.6 | 4.8 | 0.00 | 0.48 | 0.46 | 92 | 1030.0 |
| 20260507014541 | -1 | 4 | 0.0 | 0.0 | 0.00 | 0.53 | 0.46 | 92 | 1030.0 |
| 20260507013130 | -1 | 4 | 1.6 | 3.2 | 0.00 | 0.53 | 0.46 | 92 | 1030.2 |
| 20260507011540 | -1 | 4 | 0.0 | 4.8 | 0.03 | 0.53 | 0.46 | 92 | 1030.4 |
| 20260507010121 | -1 | 4 | 1.6 | 6.4 | 0.03 | 0.53 | 0.46 | 92 | 1030.2 |
| 20260507004536 | -1 | 4 | 0.0 | 6.4 | 0.05 | 0.61 | 0.46 | 92 | 1030.1 |
| 20260507003128 | -1 | 4 | 3.2 | 6.4 | 0.05 | 0.61 | 0.46 | 92 | 1030.2 |
| 20260507001551 | -1 | 4 | 0.0 | 3.2 | 0.05 | 0.58 | 0.43 | 92 | 1030.4 |
| 20260507000013 | -1 | 4 | 0.0 | 4.8 | 0.08 | 0.58 | 0.43 | 92 | 1030.4 |
| 20260506234627 | -1 | 4 | 1.6 | 8.0 | 0.08 | 0.64 | 0.41 | 92 | 1030.3 |
| 20260506233027 | -1 | 4 | 0.0 | 0.0 | 0.08 | 0.61 | 0.38 | 92 | 1030.3 |
| 20260506231619 | -1 | 4 | 0.0 | 1.6 | 0.10 | 0.61 | 0.38 | 92 | 1030.0 |
| 20260506230034 | -1 | 4 | 1.6 | 6.4 | 0.10 | 0.58 | 0.36 | 92 | 1029.6 |
| 20260506224625 | -1 | 4 | 0.0 | 8.0 | 0.10 | 0.56 | 0.33 | 92 | 1029.6 |
| 20260506223040 | -1 | 4 | 3.2 | 9.7 | 0.10 | 0.53 | 0.30 | 92 | 1029.4 |
| 20260506221631 | -1 | 4 | 6.4 | 12.9 | 0.10 | 0.51 | 0.28 | 93 | 1029.4 |
| 20260506220052 | -1 | 4 | 9.7 | 17.7 | 0.10 | 0.48 | 0.25 | 93 | 1029.1 |
| 20260506214508 | -1 | 4 | 6.4 | 16.1 | 0.05 | 0.43 | 0.20 | 93 | 1029.2 |
| 20260506213107 | -1 | 4 | 6.4 | 16.1 | 0.08 | 0.43 | 0.20 | 93 | 1029.0 |
| 20260506211516 | -1 | 4 | 11.3 | 20.9 | 0.08 | 0.41 | 0.18 | 93 | 1029.0 |